FW1642 Weather Reports


time (UTC)temp
C
wind
direction
speed
KPH
gust
KPH
rain 1hr
cm
rain 24hr
cm
rain mn
cm
humidity
%
barometer
mb
20260505070537 1 112 3.2 4.8 0.00 0.00 0.00 67 1017.2
20260505070033 2 103 3.2 4.8 0.00 0.00 0.00 66 1017.3
20260505065529 1 87 1.6 3.2 0.00 0.00 0.00 67 1017.1
20260505065026 1 59 0.0 1.6 0.00 0.00 0.00 68 1017.3
20260505064522 1 89 1.6 4.8 0.00 0.00 0.00 67 1017.2
20260505064021 1 70 6.4 8.0 0.00 0.00 0.00 68 1017.1
20260505063518 1 93 1.6 3.2 0.00 0.00 0.00 66 1017.2
20260505063013 2 65 6.4 6.4 0.00 0.00 0.00 65 1017.1
20260505062511 2 92 1.6 8.0 0.00 0.00 0.00 63 1017.0
20260505062008 3 88 4.8 8.0 0.00 0.00 0.00 62 1017.2
20260505061505 2 117 6.4 8.0 0.00 0.00 0.00 62 1017.1
20260505061003 3 88 6.4 8.0 0.00 0.00 0.00 62 1017.2
20260505060500 3 96 4.8 6.4 0.00 0.00 0.00 62 1017.1
20260505055956 2 76 6.4 8.0 0.00 0.00 0.00 64 1017.1
20260505055452 2 66 6.4 8.0 0.00 0.00 0.00 64 1017.1
20260505054949 3 57 9.7 9.7 0.00 0.00 0.00 60 1017.1
20260505054446 3 75 3.2 3.2 0.00 0.00 0.00 58 1017.0
20260505053944 4 82 3.2 3.2 0.00 0.00 0.00 57 1016.8
20260505053441 5 128 1.6 4.8 0.00 0.00 0.00 56 1017.0
20260505052938 5 84 4.8 8.0 0.00 0.00 0.00 55 1017.0
20260505052435 5 99 4.8 4.8 0.00 0.00 0.00 55 1017.0
20260505051932 5 92 6.4 8.0 0.00 0.00 0.00 54 1017.1
20260505051429 5 116 4.8 6.4 0.00 0.00 0.00 53 1017.1
20260505050927 6 104 3.2 3.2 0.00 0.00 0.00 53 1017.0
20260505050425 6 66 3.2 4.8 0.00 0.00 0.00 53 1017.1
20260505041353 6 53 8.0 8.0 0.00 0.00 0.00 52 1016.4
20260505040850 7 62 4.8 4.8 0.00 0.00 0.00 49 1016.3
20260505040347 7 12 4.8 8.0 0.00 0.00 0.00 47 1016.3
20260505035844 7 24 6.4 9.7 0.00 0.00 0.00 47 1016.3
20260505035339 7 7 11.3 14.5 0.00 0.00 0.00 47 1016.0
20260505034837 7 346 4.8 8.0 0.00 0.00 0.00 49 1016.2
20260505034333 7 316 12.9 17.7 0.00 0.00 0.00 47 1015.9
20260505033831 7 322 9.7 12.9 0.00 0.00 0.00 47 1016.0
20260505033328 8 336 8.0 22.5 0.00 0.00 0.00 47 1015.8
20260505032826 8 331 8.0 19.3 0.00 0.00 0.00 47 1016.0
20260505032322 8 332 9.7 24.1 0.00 0.00 0.00 45 1015.8
20260505031819 8 308 14.5 19.3 0.00 0.00 0.00 46 1015.6
20260505031315 8 299 12.9 14.5 0.00 0.00 0.00 45 1015.6
20260505030813 8 306 6.4 9.7 0.00 0.00 0.00 45 1015.5
20260505030310 9 301 9.7 19.3 0.00 0.00 0.00 43 1015.5
20260505025804 9 301 12.9 17.7 0.00 0.00 0.00 43 1015.4
20260505025304 9 319 6.4 16.1 0.00 0.00 0.00 43 1015.2
20260505024801 9 316 8.0 14.5 0.00 0.00 0.00 43 1015.2
20260505024258 9 339 4.8 9.7 0.00 0.00 0.00 43 1015.4
20260505023755 10 313 9.7 14.5 0.00 0.00 0.00 43 1015.5
20260505023252 9 340 6.4 11.3 0.00 0.00 0.00 43 1015.1
20260505022749 9 300 3.2 11.3 0.00 0.00 0.00 44 1015.2
20260505022246 10 317 8.0 12.9 0.00 0.00 0.00 43 1015.4
20260505021743 10 318 8.0 12.9 0.00 0.00 0.00 43 1015.1
20260505021240 10 317 8.0 12.9 0.00 0.00 0.00 41 1015.0
20260505020735 10 354 4.8 6.4 0.00 0.00 0.00 41 1015.1
20260505020231 10 14 6.4 9.7 0.00 0.00 0.00 42 1014.8
20260505015728 10 323 8.0 12.9 0.00 0.00 0.00 43 1015.0
20260505015225 10 316 9.7 16.1 0.00 0.00 0.00 42 1015.0
20260505014722 10 321 14.5 24.1 0.00 0.00 0.00 40 1015.0
20260505014220 11 334 8.0 9.7 0.00 0.00 0.00 40 1015.0
20260505013716 11 13 6.4 9.7 0.00 0.00 0.00 39 1014.9
20260505013213 11 318 16.1 20.9 0.00 0.00 0.00 38 1015.1
20260505012712 11 343 8.0 14.5 0.00 0.00 0.00 37 1014.9
20260505012208 11 317 16.1 29.0 0.00 0.00 0.00 39 1014.8
20260505011704 11 322 19.3 24.1 0.00 0.00 0.00 39 1014.8
20260505011201 11 318 8.0 12.9 0.00 0.00 0.00 40 1014.7
20260505010657 11 352 8.0 14.5 0.00 0.00 0.00 38 1014.7
20260505010154 11 342 6.4 11.3 0.00 0.00 0.00 39 1014.8
20260505005650 11 331 6.4 14.5 0.00 0.00 0.00 39 1014.8
20260505005147 11 322 14.5 16.1 0.00 0.00 0.00 39 1014.7
20260505004644 11 309 16.1 27.4 0.00 0.00 0.00 37 1014.7
20260505004140 11 318 9.7 20.9 0.00 0.00 0.00 38 1014.7
20260505003638 11 308 8.0 19.3 0.00 0.00 0.00 38 1014.7
20260505003135 11 313 17.7 19.3 0.00 0.00 0.00 37 1014.7
20260505002631 11 313 20.9 27.4 0.00 0.00 0.00 37 1014.7
20260505002130 11 316 14.5 24.1 0.00 0.00 0.00 37 1014.6
20260505001626 12 346 14.5 24.1 0.00 0.00 0.00 35 1014.4
20260505001124 11 341 11.3 24.1 0.00 0.00 0.00 36 1014.8
20260505000621 11 315 12.9 27.4 0.00 0.00 0.00 37 1014.3
20260505000119 11 320 16.1 24.1 0.00 0.00 0.00 37 1014.4
20260504235615 11 320 20.9 30.6 0.00 0.00 0.00 37 1014.6
20260504235111 11 308 24.1 32.2 0.00 0.00 0.00 36 1014.6
20260504234609 12 314 24.1 35.4 0.00 0.00 0.00 37 1014.3
20260504234106 12 332 12.9 24.1 0.00 0.00 0.00 37 1014.4
20260504233601 12 317 17.7 29.0 0.00 0.00 0.00 36 1014.3
20260504233057 12 303 20.9 29.0 0.00 0.00 0.00 36 1014.2
20260504232555 12 320 19.3 29.0 0.00 0.00 0.00 35 1014.3
20260504232052 12 301 24.1 30.6 0.00 0.00 0.00 35 1014.1
20260504231548 12 328 17.7 32.2 0.00 0.00 0.00 35 1014.3
20260504231045 13 333 14.5 25.7 0.00 0.00 0.00 34 1014.0
20260504230541 13 333 17.7 29.0 0.00 0.00 0.00 35 1014.0
20260504230040 13 311 14.5 19.3 0.00 0.00 0.00 34 1014.3
20260504225537 13 312 16.1 25.7 0.00 0.00 0.00 32 1014.3
20260504225034 13 314 12.9 24.1 0.00 0.00 0.00 34 1014.0
20260504224530 13 325 20.9 25.7 0.00 0.00 0.00 34 1014.1
20260504224028 13 84 3.2 4.8 0.00 0.00 0.00 33 1014.2
20260504223525 13 306 9.7 22.5 0.00 0.00 0.00 36 1014.2
20260504223020 14 324 14.5 17.7 0.00 0.00 0.00 34 1014.3
20260504222517 14 327 6.4 17.7 0.00 0.00 0.00 35 1014.2
20260504222015 14 317 6.4 8.0 0.00 0.00 0.00 34 1014.2
20260504221512 15 345 4.8 4.8 0.00 0.00 0.00 37 1014.2
20260504221009 14 64 4.8 9.7 0.00 0.00 0.00 37 1014.1
20260504220505 13 30 9.7 17.7 0.00 0.00 0.00 33 1014.2
20260504220002 13 329 3.2 9.7 0.00 0.00 0.00 34 1014.3
20260504215459 13 309 8.0 9.7 0.00 0.00 0.00 36 1014.3
20260504214955 12 11 8.0 9.7 0.00 0.00 0.00 40 1014.4
20260504214452 12 18 6.4 14.5 0.00 0.00 0.00 36 1014.6
20260504213948 12 56 3.2 6.4 0.00 0.00 0.00 40 1014.6
20260504213444 12 20 9.7 12.9 0.00 0.00 0.00 37 1014.4
20260504212942 12 32 8.0 17.7 0.00 0.00 0.00 36 1014.7
20260504212438 12 8 8.0 20.9 0.00 0.00 0.00 41 1014.6
20260504211936 12 29 11.3 16.1 0.00 0.00 0.00 38 1014.7
20260504211432 12 325 11.3 17.7 0.00 0.00 0.00 39 1014.4
20260504210929 12 346 4.8 12.9 0.00 0.00 0.00 40 1014.6
20260504210426 12 39 11.3 16.1 0.00 0.00 0.00 39 1014.6
20260504205923 12 16 12.9 25.7 0.00 0.00 0.00 38 1014.6
20260504205421 12 22 14.5 20.9 0.00 0.00 0.00 40 1014.4
20260504204919 12 9 9.7 14.5 0.00 0.00 0.00 40 1014.4
20260504204417 12 7 14.5 14.5 0.00 0.00 0.00 39 1014.7
20260504203916 12 5 9.7 9.7 0.00 0.00 0.00 39 1014.7
20260504203413 12 20 11.3 17.7 0.00 0.00 0.00 38 1014.4
20260504202908 12 322 8.0 14.5 0.00 0.00 0.00 38 1014.8
20260504202406 12 52 9.7 17.7 0.00 0.00 0.00 39 1014.6
20260504201902 12 18 8.0 16.1 0.00 0.00 0.00 38 1014.8
20260504201400 12 20 8.0 17.7 0.00 0.00 0.00 38 1014.7
20260504200857 12 4 6.4 9.7 0.00 0.00 0.00 38 1014.7
20260504200354 12 358 11.3 16.1 0.00 0.00 0.00 38 1014.6
20260504195850 12 5 11.3 14.5 0.00 0.00 0.00 38 1014.7
20260504195345 12 343 9.7 14.5 0.00 0.00 0.00 39 1014.3
20260504194843 12 28 6.4 14.5 0.00 0.00 0.00 37 1014.7
20260504194339 13 0 8.0 17.7 0.00 0.00 0.00 37 1014.6
20260504193835 13 320 8.0 14.5 0.00 0.00 0.00 38 1014.7
20260504193332 13 27 3.2 6.4 0.00 0.00 0.00 35 1014.7
20260504192831 13 12 8.0 14.5 0.00 0.00 0.00 34 1014.8
20260504192328 13 223 0.0 4.8 0.00 0.00 0.00 35 1014.8
20260504191827 13 327 3.2 4.8 0.00 0.00 0.00 33 1014.7
20260504191324 13 75 3.2 6.4 0.00 0.00 0.00 34 1014.8
20260504190819 13 74 1.6 9.7 0.00 0.00 0.00 38 1014.8
20260504190315 13 347 1.6 12.9 0.00 0.00 0.00 37 1015.0
20260504185812 14 30 1.6 14.5 0.00 0.00 0.00 33 1015.0
20260504185309 15 121 3.2 6.4 0.00 0.00 0.00 33 1015.1
20260504184805 15 178 4.8 4.8 0.00 0.00 0.00 44 1014.8
20260504184301 14 110 3.2 9.7 0.00 0.00 0.00 37 1015.0
20260504183757 14 343 3.2 8.0 0.00 0.00 0.00 36 1015.0
20260504183254 15 155 6.4 11.3 0.00 0.00 0.00 35 1014.9
20260504182752 15 189 6.4 8.0 0.00 0.00 0.00 31 1015.0
20260504182249 14 356 1.6 8.0 0.00 0.00 0.00 37 1015.1
20260504181747 14 168 3.2 9.7 0.00 0.00 0.00 36 1015.4
20260504181244 13 343 9.7 11.3 0.00 0.00 0.00 37 1015.0
20260504180743 14 341 3.2 12.9 0.00 0.00 0.00 35 1015.2
20260504180241 13 101 3.2 8.0 0.00 0.00 0.00 38 1015.2
20260504175738 13 108 8.0 11.3 0.00 0.00 0.00 37 1015.4
20260504175235 12 166 6.4 11.3 0.00 0.00 0.00 42 1015.7
20260504174733 12 314 9.7 9.7 0.00 0.00 0.00 36 1015.5
20260504174231 13 244 3.2 8.0 0.00 0.00 0.00 36 1015.5
20260504173727 13 166 3.2 4.8 0.00 0.00 0.00 39 1015.5
20260504173224 13 19 0.0 3.2 0.00 0.00 0.00 40 1015.6
20260504172721 12 144 8.0 14.5 0.00 0.00 0.00 36 1015.5
20260504172217 13 101 12.9 14.5 0.00 0.00 0.00 38 1015.5
20260504171714 13 328 8.0 8.0 0.00 0.00 0.00 41 1015.6
20260504171211 12 122 6.4 8.0 0.00 0.00 0.00 35 1015.5
20260504170707 12 162 4.8 9.7 0.00 0.00 0.00 36 1015.5
20260504170205 13 122 4.8 11.3 0.00 0.00 0.00 34 1015.8
20260504160123 12 92 1.6 6.4 0.00 0.00 0.00 34 1015.9
20260504151050 10 328 8.0 12.9 0.00 0.00 0.00 41 1016.0
20260504150548 10 328 6.4 14.5 0.00 0.00 0.00 40 1016.0
20260504141014 9 317 16.1 17.7 0.00 0.00 0.00 47 1016.0
20260504140510 9 10 16.1 22.5 0.00 0.00 0.00 46 1016.2
20260504130435 7 69 6.4 16.1 0.00 0.00 0.00 50 1015.5
20260504110322 2 141 3.2 4.8 0.00 0.00 0.00 69 1013.5
20260504100240 3 72 1.6 3.2 0.00 0.00 0.00 66 1012.5
20260504081633 5 116 8.0 8.0 0.00 0.00 0.00 62 1012.0
20260504081129 5 124 3.2 4.8 0.00 0.00 0.00 62 1012.0
20260504080626 5 99 3.2 6.4 0.00 0.00 0.00 61 1012.2
20260504080122 5 83 3.2 4.8 0.00 0.00 0.00 61 1011.8